sat.trackr.live / text

‹ back to catalog

STARLINK-36053

NORAD 66875 · 2025-281AD

PAYLOAD ACTIVE UNKNOWN

§ Identity

Operator
Country
US
Launch date
2025-12-02
Launch site
AFETR
Launch vehicle
Mass (kg)
RCS (m²)

Purposes: comms

External: N2YO · Heavens-Above · Gunter

§ Orbital elements

Epoch: 2026-05-25T00:56:46.345056Z

Period
94.27 min
Inclination
42.9983°
Eccentricity
0.0001761
Mean motion
15.27572705 rev/d
Perigee alt
481.9 km
Apogee alt
484.3 km
Semi-major
6,861.2 km
B*
8.4075e-4
RAAN
272.1587°
Arg perigee
34.2504°
Mean anomaly
325.8461°
Rev number
2,780

§ Raw data

STARLINK-360531 66875U 25281AD  26145.03942529  .00022940  00000+0  84075-3 0  99952 66875  42.9983 272.1587 0001761  34.2504 325.8461 15.27572705 27801

JSON: /api/v1/satellites/66875 · /tle

For live sub-satellite position, see the globe view (requires WebGL).

§ Visibility from observer

Set your observer location to see the next 7 days of passes ≥ 10°. The values pass through the URL so the page stays shareable.

No JS? Fill the form by hand. The geolocation button needs JavaScript.